Time,TemperatureF,DewpointF,PressureIn,WindDirection,WindDirectionDegrees,WindSpeedMPH,WindSpeedGustMPH,Humidity,HourlyPrecipIn,Conditions,Clouds,dailyrainin,SolarRadiationWatts/m^2,SoftwareType,DateUTC
2013-01-06 15:33:00,59.0,37.0,-100.00,NNE,32,7.0,14.0,44,0.00,,,0.00,542.000000,,2013-01-06 21:33:00,
2013-01-06 15:43:00,59.0,37.0,-100.00,NNE,32,7.0,14.0,44,0.00,,,0.00,542.000000,,2013-01-06 21:43:00,
2013-01-06 15:53:00,59.0,37.0,-100.00,NNE,32,7.0,14.0,44,0.00,,,0.00,542.000000,,2013-01-06 21:53:00,
2013-01-06 16:02:00,59.0,37.0,-100.00,NNE,32,7.0,14.0,44,0.00,,,0.00,542.000000,,2013-01-06 22:02:00,
2013-01-06 16:33:00,59.0,37.0,-100.00,NNW,348,7.0,16.0,43,0.00,,,0.00,382.000000,,2013-01-06 22:33:00,
2013-01-06 16:43:00,59.0,37.0,-100.00,NNW,348,7.0,16.0,43,0.00,,,0.00,382.000000,,2013-01-06 22:43:00,
2013-01-06 16:53:00,59.0,37.0,-100.00,NNW,348,7.0,16.0,43,0.00,,,0.00,382.000000,,2013-01-06 22:53:00,
2013-01-06 17:02:00,59.0,37.0,-100.00,NNW,348,7.0,16.0,43,0.00,,,0.00,382.000000,,2013-01-06 23:02:00,
2013-01-06 17:33:00,56.0,35.0,-100.00,North,9,4.0,10.0,45,0.00,,,0.00,114.000000,,2013-01-06 23:33:00,
2013-01-06 17:43:00,56.0,35.0,-100.00,North,9,4.0,10.0,45,0.00,,,0.00,114.000000,,2013-01-06 23:43:00,
2013-01-06 17:53:00,56.0,35.0,-100.00,North,9,4.0,10.0,45,0.00,,,0.00,114.000000,,2013-01-06 23:53:00,
2013-01-06 18:02:00,56.0,35.0,-100.00,North,9,4.0,10.0,45,0.00,,,0.00,114.000000,,2013-01-07 00:02:00,
2013-01-06 18:33:00,48.0,36.0,-100.00,SW,228,0.0,5.0,64,0.00,,,0.00,8.000000,,2013-01-07 00:33:00,
2013-01-06 18:43:00,48.0,36.0,-100.00,SW,228,0.0,5.0,64,0.00,,,0.00,8.000000,,2013-01-07 00:43:00,
2013-01-06 18:53:00,48.0,36.0,-100.00,SW,228,0.0,5.0,64,0.00,,,0.00,8.000000,,2013-01-07 00:53:00,
2013-01-06 19:02:00,48.0,36.0,-100.00,SW,228,0.0,5.0,64,0.00,,,0.00,8.000000,,2013-01-07 01:02:00,
2013-01-06 19:23:00,44.0,38.0,-100.00,East,91,1.0,2.0,80,0.00,,,0.00,0.000000,,2013-01-07 01:23:00,
2013-01-06 19:32:00,44.0,38.0,-100.00,East,91,1.0,2.0,80,0.00,,,0.00,0.000000,,2013-01-07 01:32:00,
2013-01-06 19:43:00,44.0,38.0,-100.00,East,91,1.0,2.0,80,0.00,,,0.00,0.000000,,2013-01-07 01:43:00,
2013-01-06 19:53:00,44.0,38.0,-100.00,East,91,1.0,2.0,80,0.00,,,0.00,0.000000,,2013-01-07 01:53:00,
2013-01-06 20:02:00,44.0,38.0,-100.00,East,91,1.0,2.0,80,0.00,,,0.00,0.000000,,2013-01-07 02:02:00,
2013-01-06 20:23:00,40.0,38.0,-100.00,NNW,344,0.0,0.0,92,0.00,,,0.00,0.000000,,2013-01-07 02:23:00,
2013-01-06 20:32:00,40.0,38.0,-100.00,NNW,344,0.0,0.0,92,0.00,,,0.00,0.000000,,2013-01-07 02:32:00,
2013-01-06 20:43:00,40.0,38.0,-100.00,NNW,344,0.0,0.0,92,0.00,,,0.00,0.000000,,2013-01-07 02:43:00,
2013-01-06 20:53:00,40.0,38.0,-100.00,NNW,344,0.0,0.0,92,0.00,,,0.00,0.000000,,2013-01-07 02:53:00,
2013-01-06 21:02:00,40.0,38.0,-100.00,NNW,344,0.0,0.0,92,0.00,,,0.00,0.000000,,2013-01-07 03:02:00,
2013-01-06 21:23:00,38.0,36.0,-100.00,North,10,1.0,2.0,91,0.00,,,0.00,0.000000,,2013-01-07 03:23:00,
2013-01-06 21:33:00,38.0,36.0,-100.00,North,10,1.0,2.0,91,0.00,,,0.00,0.000000,,2013-01-07 03:33:00,
2013-01-06 21:43:00,38.0,36.0,-100.00,North,10,1.0,2.0,91,0.00,,,0.00,0.000000,,2013-01-07 03:43:00,
2013-01-06 21:53:00,38.0,36.0,-100.00,North,10,1.0,2.0,91,0.00,,,0.00,0.000000,,2013-01-07 03:53:00,
2013-01-06 22:02:00,38.0,36.0,-100.00,North,10,1.0,2.0,91,0.00,,,0.00,0.000000,,2013-01-07 04:02:00,
2013-01-06 22:33:00,36.0,34.0,-100.00,NW,317,1.0,2.0,94,0.00,,,0.00,0.000000,,2013-01-07 04:33:00,
2013-01-06 22:42:00,36.0,34.0,-100.00,NW,317,1.0,2.0,94,0.00,,,0.00,0.000000,,2013-01-07 04:42:00,
2013-01-06 22:52:00,36.0,34.0,-100.00,NW,317,1.0,2.0,94,0.00,,,0.00,0.000000,,2013-01-07 04:52:00,
2013-01-06 23:02:00,36.0,34.0,-100.00,NW,317,1.0,2.0,94,0.00,,,0.00,0.000000,,2013-01-07 05:02:00,
2013-01-06 23:22:00,35.0,34.0,-100.00,West,270,0.0,2.0,95,0.00,,,0.00,0.000000,,2013-01-07 05:22:00,
2013-01-06 23:33:00,35.0,34.0,-100.00,West,270,0.0,2.0,95,0.00,,,0.00,0.000000,,2013-01-07 05:33:00,
2013-01-06 23:43:00,35.0,34.0,-100.00,West,270,0.0,2.0,95,0.00,,,0.00,0.000000,,2013-01-07 05:43:00,
2013-01-06 23:53:00,35.0,34.0,-100.00,West,270,0.0,2.0,95,0.00,,,0.00,0.000000,,2013-01-07 05:53:00,